Location: Radomski Observatory
(40.2854°N, 79.5145°W)
Time: 01:31:56
(UTC-04:00)

Cosmos 1072 Rocket - Visible Passes

Search period start: 23 August 2014 00:00
Search period end: 02 September 2014 00:00
Orbit: 948 x 1009 km, 82.9° (Epoch: 21 August)

Date Brightness Start Highest point End Pass type
(mag) Time Alt. Az. Time Alt. Az. Time Alt. Az.
23 Aug 5.3 22:35:25 10° N 22:40:47 37° ENE 22:40:47 37° ENE visible
24 Aug 5.9 00:21:01 10° NNW 00:25:31 31° WNW 00:25:31 31° WNW visible
24 Aug 4.6 23:01:31 10° N 23:07:08 63° NE 23:07:08 63° NE visible
25 Aug 6.6 00:48:37 10° NW 00:51:53 17° WNW 00:51:53 17° WNW visible
25 Aug 6.0 21:43:58 10° NNE 21:48:14 19° ENE 21:48:46 18° ENE visible
25 Aug 4.8 23:27:59 10° NNW 23:33:30 62° NW 23:33:30 62° NW visible
26 Aug 5.3 22:09:26 10° N 22:15:05 34° ENE 22:15:09 34° ENE visible
26 Aug 5.7 23:54:49 10° NNW 23:59:54 36° WNW 23:59:54 36° WNW visible
27 Aug 4.6 22:35:28 10° N 22:41:33 61° ENE 22:41:33 61° ENE visible
28 Aug 6.5 00:22:16 10° NW 00:26:18 20° W 00:26:18 20° W visible
28 Aug 6.0 21:18:09 10° NNE 21:22:05 17° ENE 21:23:14 16° E visible
28 Aug 4.6 23:01:52 10° N 23:07:58 74° WNW 23:07:58 74° WNW visible
29 Aug 5.3 21:43:27 10° NNE 21:48:58 31° ENE 21:49:40 30° E visible
29 Aug 5.5 23:28:39 10° NNW 23:34:25 40° W 23:34:25 40° W visible
30 Aug 4.6 22:09:25 10° N 22:15:39 56° E 22:16:08 54° E visible
30 Aug 6.3 23:55:57 10° NW 00:00:35 22° W 00:00:52 22° W visible
31 Aug 6.1 20:52:22 10° NNE 20:55:56 15° ENE 20:57:52 14° E visible
31 Aug 4.4 22:35:47 10° N 22:42:08 82° W 22:42:37 76° SSW visible
01 Sep 7.0 00:25:02 10° WNW 00:26:31 11° WNW 00:27:22 11° W visible
01 Sep 5.5 21:17:30 10° NNE 21:22:51 28° ENE 21:24:22 25° E visible
01 Sep 5.3 23:02:29 10° NNW 23:08:27 45° W 23:09:07 43° WSW visible
